Regional Weather Roundup
Issued by NWS Northern Indiana

Home | Current Version | Previous Version | Text Only | Print | Product List | Glossary Off
Versions: 1 2 3 4 5 6 7 8 9 10 11 12 13 14 15 16 17 18 19 20 21 22 23 24 25 26 27 28 29 30 31 32 33 34 35 36 37 38 39 40 41 42 43 44 45 46 47 48 49 50

000
ASUS43 KIWX 031000
RWRIWX

KIWX WEATHER ROUNDUP
NATIONAL WEATHER SERVICE NORTHERN INDIANA
600 AM EDT TUE MAY 03 2016

NOTE: "FAIR" INDICATES FEW OR NO CLOUDS BELOW 12,000 FEET WITH NO
SIGNIFICANT WEATHER AND/OR OBSTRUCTIONS TO VISIBILITY.

* THESE STATIONS ARE NOT UNDER NWS QUALITY CONTROL. THEY ALSO MAY NOT
  REPORT WEATHER SUCH AS PRECIPITATION OR FOG.

INZ001>027-031100-
NORTHERN INDIANA

CITY           SKY/WX    TMP DP  RH WIND       PRES   REMARKS
GARY*          PTCLDY    37  37 100 W3        29.98S
SOUTH BEND     PTCLDY    41  39  93 N3        29.96S
GOSHEN         CLOUDY    48  46  93 CALM      29.95S
ANGOLA*        CLOUDY    46  39  76 CALM      29.94S
FORT WAYNE     CLOUDY    49  47  93 N3        29.94S FOG
PERU/GRISSOM   DRIZZLE   48  48 100 N7        29.93R

$$
INZ028>050-031100-
CENTRAL INDIANA

CITY           SKY/WX    TMP DP  RH WIND       PRES   REMARKS
LAFAYETTE      CLOUDY    48  45  89 NW5       29.95S
KOKOMO*        CLOUDY    48  45  87 N7        29.93S
MUNCIE*        CLOUDY    51  46  83 NE7       29.92S
INDIANAPOLIS   LGT RAIN  50  49  96 NW8       29.90F FOG

$$
MIZ043>046-050>051-056>058-064>065-071>073-077>080-031100-
SOUTHWEST LOWER MICHIGAN

CITY           SKY/WX    TMP DP  RH WIND       PRES   REMARKS
BATTLE CREEK   PTCLDY    41  39  93 CALM      29.95F
BENTON HARBOR  PTCLDY    36  33  89 CALM      29.96F
COLDWATER*     CLOUDY    47  46  99 CALM      29.94F
HILLSDALE*     CLOUDY    46  45  95 N3        29.93F
HOLLAND        PTCLDY    38  36  92 W3        29.96S
GRAND RAPIDS   PTCLDY    38  36  92 CALM      29.95F
KALAMAZOO      CLEAR     42  39  89 CALM      29.95F FOG
STURGIS*       CLOUDY    46  45  98 CALM      29.94S FOG
THREE RIVERS*  CLOUDY    48  46  93 CALM      29.95S

$$
OHZ001>008-015>018-024>025-031100-
NORTHWEST OHIO

CITY           SKY/WX    TMP DP  RH WIND       PRES   REMARKS
DEFIANCE       CLOUDY    47  46  97 CALM      29.94S FOG
FINDLAY        CLOUDY    48  42  80 NE6       29.91F
TOLEDO EXPRESS CLOUDY    45  44  97 CALM      29.93F FOG
TOLEDO METCALF CLOUDY    48  45  89 CALM      29.94F FOG
LIMA           CLOUDY    47  45  93 CALM      29.93R

$$
AND FOR LAKE MICHIGAN COASTAL AND OPEN LAKE BUOY OBSERVATIONS

STATION/POSITION TEMP    WIND        PRES    VSBY  WAVE
                 AIR SEA DIR/SP/G                  HT/PER
                 (F)     (DEG/KT/KT) (MB)    (MI)  (FT/S)
CALUMET HARBOR    43     270/  1/  2 1014.4F
MICHIGAN CITY     44     300/  4/  4   N/A
BURNS HARBOR      47     350/  4/  7 1015.6S
SAINT JOSEPH      44     240/  4/  4 1014.9F
SOUTH LAKE BUOY   42 41  230/  4/  4 1014.9          1
4 MI NW BRIDGMAN  44 48                N/A           1/ 4

$$
&&



USA.gov is the U.S. government's official web portal to all federal, state and local government web resources and services.